Regional Weather Roundup
Issued by NWS

Home | Current Version | Previous Version | Text Only | Print | Product List | Glossary On
Versions: 1 2 3 4 5 6 7 8 9 10 11 12 13 14 15 16 17 18 19 20 21 22 23 24 25 26 27 28 29 30 31 32 33 34 35 36 37 38 39 40 41 42 43 44 45 46 47 48 49 50
000
ASUS44 KJAN 281320
RWRMS

MISSISSIPPI HOURLY WEATHER ROUNDUP
NATIONAL WEATHER SERVICE JACKSON MS
800 AM CDT SUN AUG 28 2016

NOTE: "FAIR: INDICATES FEW OR NO CLOUDS BELOW 12,000 FEET WITH NO
SIGNIFICANT WEATHER AND/OR OBSTRUCTIONS TO VISIBILITY.

MSZ001>002-007>008-010>013-018>021-025>028-034>036-281400-
NORTHWEST MISSISSIPPI

CITY           SKY/WX    TMP DP  RH WIND       PRES   REMARKS
CLARKSDALE     SUNNY     77  77 100 CALM      30.08S
GREENWOOD      CLOUDY    78  71  79 E3        30.07R
GREENVILLE     PTSUNNY   79  73  82 E3        30.07R
OLIVE BRANCH   MOSUNNY  N/A N/A N/A CALM      30.10R
OXFORD         FAIR      77  73  88 SE3       30.13R
TUNICA         SUNNY     73  73 100 NE3       30.10R
$$

MSZ003>006-009-014>017-022>024-029>033-037>039-281400-
NORTHEAST MISSISSIPPI

CITY           SKY/WX    TMP DP  RH WIND       PRES   REMARKS
COLUMBUS AFB   SUNNY     77  74  92 SE1       30.08R
CORINTH          N/A    N/A N/A N/A CALM      30.11R
GOLDN TRIANGLE MOSUNNY   77  68  73 E5        30.09R
TUPELO         MOSUNNY   75  72  90 N5        30.11R
$$

MSZ040-058-281400-
CENTRAL MISSISSIPPI

CITY           SKY/WX    TMP DP  RH WIND       PRES   REMARKS
JACKSON INTL   MOSUNNY   77  72  84 CALM      30.07R
JACKSON HAWKNS SUNNY     76  73  91 CALM      30.07R
MERIDIAN KEY   CLOUDY    76  71  85 N5        30.08R
MERIDIAN NAS   CLOUDY    76  69  79 CALM      30.09R
$$

MSZ059>079-281400-
SOUTH MISSISSIPPI

CITY           SKY/WX    TMP DP  RH WIND       PRES   REMARKS
BROOKHAVEN     FAIR     N/A N/A N/A CALM      30.07S
HATTIESBURG    CLOUDY    76  74  93 CALM      30.05R
MCCOMB         CLOUDY    77  73  87 VRB3      30.04R
NATCHEZ        NOT AVBL
PINE BELT      CLOUDY    75  72  88 NE6       30.07R
$$

MSZ080>082-281400-
COASTAL MISSISSIPPI

CITY           SKY/WX    TMP DP  RH WIND       PRES   REMARKS
BILOXI         MOSUNNY   76  76 100 NE7       30.01R
PASCAGOULA     PTSUNNY   76  75  97 NE5       30.01R
GULFPORT       MOSUNNY   76  74  93 NE6       30.01R
$$

LAZ007>009-015>016-023>026-281400-
NORTHEAST LOUISIANA

CITY           SKY/WX    TMP DP  RH WIND       PRES   REMARKS
BASTROP        FAIR      77  76  98 CALM      30.06R
TALLULAH/VBURG MOSUNNY   81  77  88 CALM      30.05R
$$



USA.gov is the U.S. government's official web portal to all federal, state and local government web resources and services.